QPF
0.07 0.06 0.05 0.04 0.05 0.05 0.04 0.03 0.03 0.02 0.02 0.02 0.03 0.03 0.02 0.02 0.02 0.01 0.01 0.01 0.01 0.01 0.01 0.02 0.02 0.01 0.02 0.02 0.02 0.03 0.04 0.04 0.04 0.02 0.01 0.01 0.01 0.01 0.01 0.01 0.02 0.02 0.03
0.09 0.06 0.04 0.02 0.02 0.02 0.03 0.03 0.01 0.01 0.01 0.02 0.02 0.02 0.01 0.01 0.01 0.01 0.01 0.01 0.00 0.00 0.01 0.01 0.01 0.01 0.02 0.01 0.02 0.03 0.02 0.01 0.01 0.01 0.01 0.01 0.01 0.02 0.02 0.03 0.03 0.04 0.05
0.08 0.03 0.03 0.04 0.03 0.02 0.02 0.01 0.01 0.01 0.01 0.01 0.01 0.02 0.01 0.01 0.01 0.02 0.01 0.00 0.00 0.00 0.00 0.00 0.00 0.01 0.01 0.01 0.01 0.02 0.02 0.01 0.01 0.01 0.01 0.01 0.01 0.02 0.02 0.02 0.03 0.05 0.05
0.03 0.01 0.01 0.01 0.01 0.01 0.01 0.01 0.01 0.01 0.01 0.01 0.02 0.02 0.02 0.02 0.01 0.01 0.01 0.01 0.00 0.00 0.00 0.00 0.00 0.00 0.00 0.00 0.00 0.01 0.01 0.02 0.01 0.01 0.01 0.01 0.01 0.01 0.01 0.02 0.03 0.04 0.04
0.01 0.01 0.01 0.01 0.01 0.00 0.00 0.01 0.01 0.01 0.02 0.02 0.02 0.02 0.01 0.01 0.01 0.01 0.02 0.02 0.01 0.00 0.00 0.00 0.00 0.00 0.00 0.00 0.00 0.00 0.01 0.01 0.01 0.01 0.01 0.01 0.02 0.02 0.02 0.02 0.02 0.03 0.03
0.00 0.00 0.00 0.00 0.01 0.00 0.00 0.00 0.02 0.03 0.02 0.01 0.01 0.01 0.01 0.01 0.01 0.01 0.02 0.01 0.01 0.00 0.00 0.00 0.00 0.00 0.00 0.00 0.01 0.01 0.01 0.02 0.02 0.02 0.01 0.01 0.01 0.02 0.02 0.02 0.02 0.02 0.01
0.00 0.00 0.00 0.00 0.00 0.00 0.00 0.00 0.02 0.03 0.01 0.01 0.02 0.01 0.01 0.01 0.01 0.01 0.01 0.00 0.00 0.00 0.00 0.00 0.00 0.00 0.01 0.01 0.01 0.01 0.01 0.01 0.02 0.02 0.01 0.01 0.01 0.01 0.01 0.01 0.01 0.01 0.00
0.00 0.00 0.00 0.00 0.00 0.00 0.00 0.00 0.01 0.01 0.01 0.01 0.01 0.00 0.00 0.00 0.00 0.00 0.00 0.00 0.00 0.00 0.00 0.00 0.00 0.01 0.01 0.01 0.01 0.01 0.01 0.01 0.02 0.01 0.02 0.02 0.01 0.00 0.01 0.01 0.01 0.01 0.01
0.00 0.00 0.00 0.00 0.00 0.00 0.00 0.00 0.00 0.00 0.00 0.00 0.00 0.00 0.00 0.00 0.00 0.00 0.00 0.00 0.00 0.00 0.00 0.00 0.00 0.01 0.01 0.01 0.01 0.01 0.01 0.01 0.02 0.01 0.02 0.02 0.01 0.01 0.01 0.01 0.01 0.02 0.01
0.00 0.00 0.00 0.00 0.00 0.00 0.00 0.00 0.00 0.00 0.00 0.00 0.00 0.00 0.00 0.00 0.00 0.00 0.00 0.00 0.00 0.00 0.00 0.00 0.01 0.01 0.01 0.01 0.02 0.02 0.02 0.02 0.02 0.02 0.02 0.02 0.01 0.01 0.01 0.01 0.01 0.01 0.02
0.00 0.00 0.00 0.00 0.00 0.00 0.00 0.00 0.00 0.00 0.00 0.00 0.00 0.00 0.00 0.00 0.00 0.00 0.00 0.00 0.00 0.01 0.01 0.01 0.01 0.01 0.01 0.01 0.02 0.02 0.02 0.02 0.02 0.02 0.02 0.03 0.03 0.03 0.02 0.02 0.02 0.02 0.03
0.00 0.00 0.00 0.00 0.00 0.00 0.00 0.00 0.00 0.00 0.00 0.00 0.00 0.00 0.00 0.00 0.00 0.00 0.00 0.00 0.00 0.01 0.01 0.01 0.01 0.01 0.01 0.01 0.02 0.02 0.02 0.02 0.03 0.03 0.03 0.03 0.03 0.05 0.04 0.03 0.03 0.03 0.04
0.00 0.00 0.00 0.00 0.00 0.00 0.00 0.00 0.00 0.00 0.00 0.00 0.00 0.00 0.00 0.00 0.00 0.00 0.00 0.00 0.01 0.01 0.01 0.01 0.01 0.01 0.01 0.01 0.02 0.02 0.02 0.03 0.03 0.04 0.04 0.04 0.04 0.04 0.05 0.06 0.04 0.04 0.03
0.00 0.00 0.00 0.00 0.00 0.00 0.00 0.00 0.00 0.00 0.00 0.00 0.00 0.00 0.00 0.00 0.00 0.00 0.00 0.00 0.00 0.01 0.01 0.01 0.01 0.01 0.01 0.01 0.01 0.02 0.03 0.03 0.03 0.04 0.04 0.03 0.04 0.05 0.05 0.05 0.05 0.04 0.04
0.00 0.00 0.00 0.00 0.00 0.00 0.00 0.00 0.00 0.00 0.00 0.00 0.00 0.00 0.00 0.00 0.00 0.00 0.00 0.00 0.00 0.00 0.01 0.01 0.01 0.01 0.01 0.01 0.01 0.01 0.02 0.02 0.02 0.03 0.03 0.03 0.03 0.03 0.03 0.02 0.03 0.05 0.05
0.00 0.00 0.00 0.00 0.00 0.00 0.00 0.00 0.00 0.00 0.00 0.00 0.00 0.00 0.00 0.00 0.00 0.00 0.00 0.00 0.00 0.01 0.01 0.01 0.01 0.01 0.01 0.00 0.00 0.00 0.00 0.00 0.01 0.01 0.02 0.03 0.02 0.01 0.01 0.00 0.00 0.01 0.02
0.00 0.00 0.00 0.00 0.00 0.00 0.00 0.00 0.00 0.00 0.00 0.00 0.00 0.00 0.00 0.00 0.00 0.00 0.00 0.00 0.01 0.01 0.01 0.01 0.01 0.01 0.02 0.01 0.00 0.00 0.00 0.00 0.00 0.01 0.02 0.02 0.01 0.03 0.05 0.04 0.02 0.01 0.00
0.00 0.00 0.00 0.00 0.00 0.00 0.00 0.00 0.00 0.00 0.00 0.00 0.00 0.00 0.00 0.00 0.00 0.00 0.00 0.01 0.01 0.01 0.01 0.01 0.01 0.02 0.02 0.01 0.00 0.00 0.00 0.00 0.01 0.02 0.03 0.05 0.04 0.04 0.05 0.07 0.07 0.07 0.05
0.00 0.00 0.00 0.00 0.00 0.00 0.00 0.00 0.00 0.00 0.00 0.00 0.00 0.00 0.00 0.00 0.00 0.00 0.00 0.01 0.01 0.01 0.01 0.01 0.02 0.02 0.02 0.01 0.00 0.00 0.00 0.01 0.01 0.02 0.03 0.04 0.05 0.04 0.01 0.02 0.04 0.05 0.06
0.00 0.00 0.00 0.00 0.00 0.00 0.00 0.00 0.00 0.00 0.00 0.00 0.00 0.00 0.00 0.00 0.00 0.00 0.00 0.01 0.01 0.01 0.01 0.01 0.01 0.02 0.03 0.02 0.00 0.00 0.00 0.01 0.01 0.03 0.04 0.02 0.01 0.01 0.01 0.02 0.05 0.05 0.06
0.00 0.00 0.00 0.00 0.00 0.00 0.00 0.00 0.00 0.00 0.00 0.00 0.00 0.00 0.00 0.00 0.00 0.00 0.00 0.01 0.01 0.01 0.01 0.01 0.02 0.03 0.03 0.02 0.00 0.00 0.00 0.01 0.01 0.02 0.03 0.04 0.01 0.00 0.00 0.01 0.02 0.04 0.04
0.00 0.00 0.00 0.00 0.00 0.00 0.00 0.00 0.00 0.00 0.00 0.00 0.00 0.00 0.00 0.00 0.00 0.00 0.00 0.01 0.01 0.01 0.02 0.03 0.03 0.03 0.04 0.02 0.01 0.00 0.00 0.00 0.00 0.01 0.02 0.04 0.01 0.00 0.00 0.00 0.00 0.00 0.00
0.00 0.00 0.00 0.00 0.00 0.00 0.00 0.00 0.00 0.00 0.00 0.00 0.00 0.00 0.00 0.00 0.00 0.00 0.00 0.01 0.01 0.02 0.01 0.01 0.01 0.02 0.03 0.04 0.01 0.00 0.00 0.00 0.00 0.01 0.01 0.01 0.00 0.00 0.00 0.00 0.00 0.00 0.01
0.00 0.00 0.00 0.00 0.00 0.00 0.00 0.00 0.00 0.00 0.00 0.00 0.00 0.00 0.00 0.00 0.00 0.00 0.00 0.00 0.01 0.01 0.01 0.01 0.01 0.01 0.02 0.04 0.04 0.04 0.03 0.02 0.01 0.02 0.01 0.01 0.00 0.00 0.01 0.01 0.01 0.01 0.02
0.00 0.00 0.00 0.00 0.00 0.00 0.00 0.00 0.00 0.00 0.00 0.00 0.00 0.00 0.00 0.00 0.00 0.00 0.00 0.00 0.00 0.00 0.00 0.00 0.00 0.01 0.01 0.01 0.01 0.01 0.02 0.02 0.03 0.02 0.01 0.02 0.03 0.05 0.05 0.06 0.06 0.06 0.06
0.00 0.00 0.00 0.00 0.00 0.00 0.00 0.00 0.00 0.00 0.01 0.01 0.01 0.00 0.00 0.00 0.00 0.00 0.00 0.00 0.00 0.00 0.00 0.00 0.00 0.00 0.00 0.00 0.00 0.00 0.00 0.00 0.00 0.00 0.00 0.01 0.04 0.07 0.09 0.11 0.12 0.12 0.12
MSLP
1010.33 1010.66 1011.06 1011.47 1011.84 1012.14 1012.38 1012.57 1012.75 1012.96 1013.22 1013.52 1013.85 1014.18 1014.47 1014.69 1014.82 1014.88 1014.89 1014.90 1014.94 1015.04 1015.22 1015.48 1015.78 1016.10 1016.37 1016.58 1016.70 1016.72 1016.65 1016.52 1016.36 1016.16 1015.95 1015.73 1015.48 1015.19 1014.87 1014.52 1014.19 1013.91 1013.71
1010.83 1011.17 1011.53 1011.87 1012.14 1012.33 1012.47 1012.59 1012.75 1012.96 1013.25 1013.61 1013.99 1014.36 1014.67 1014.88 1014.98 1014.99 1014.95 1014.90 1014.90 1014.98 1015.16 1015.43 1015.75 1016.09 1016.38 1016.61 1016.73 1016.76 1016.70 1016.57 1016.41 1016.22 1016.01 1015.78 1015.51 1015.20 1014.84 1014.45 1014.06 1013.72 1013.46
1011.18 1011.53 1011.87 1012.15 1012.34 1012.45 1012.51 1012.58 1012.71 1012.94 1013.27 1013.67 1014.10 1014.50 1014.83 1015.04 1015.12 1015.10 1015.02 1014.94 1014.91 1014.97 1015.14 1015.40 1015.73 1016.07 1016.37 1016.60 1016.73 1016.77 1016.72 1016.61 1016.47 1016.31 1016.13 1015.92 1015.66 1015.35 1014.99 1014.57 1014.15 1013.76 1013.44
1011.28 1011.66 1012.00 1012.24 1012.39 1012.45 1012.47 1012.52 1012.65 1012.89 1013.25 1013.69 1014.17 1014.60 1014.95 1015.17 1015.24 1015.21 1015.10 1015.00 1014.95 1014.99 1015.15 1015.40 1015.71 1016.03 1016.32 1016.54 1016.67 1016.71 1016.68 1016.60 1016.50 1016.37 1016.24 1016.07 1015.86 1015.58 1015.23 1014.82 1014.38 1013.96 1013.59
1011.10 1011.51 1011.87 1012.12 1012.27 1012.32 1012.35 1012.40 1012.55 1012.82 1013.22 1013.69 1014.20 1014.66 1015.03 1015.25 1015.33 1015.30 1015.19 1015.08 1015.02 1015.04 1015.17 1015.40 1015.67 1015.96 1016.22 1016.42 1016.53 1016.57 1016.55 1016.50 1016.43 1016.36 1016.27 1016.16 1016.00 1015.77 1015.46 1015.08 1014.65 1014.22 1013.82
1010.65 1011.10 1011.49 1011.79 1011.97 1012.07 1012.14 1012.24 1012.43 1012.74 1013.17 1013.67 1014.19 1014.67 1015.05 1015.29 1015.38 1015.35 1015.26 1015.15 1015.08 1015.09 1015.19 1015.37 1015.60 1015.84 1016.05 1016.21 1016.29 1016.32 1016.31 1016.28 1016.24 1016.21 1016.18 1016.12 1016.02 1015.85 1015.59 1015.25 1014.86 1014.44 1014.03
1009.98 1010.48 1010.93 1011.30 1011.55 1011.73 1011.88 1012.05 1012.30 1012.66 1013.11 1013.63 1014.16 1014.64 1015.02 1015.26 1015.36 1015.35 1015.27 1015.16 1015.09 1015.08 1015.15 1015.29 1015.46 1015.64 1015.79 1015.90 1015.95 1015.96 1015.94 1015.92 1015.91 1015.91 1015.92 1015.91 1015.86 1015.75 1015.55 1015.27 1014.93 1014.55 1014.16
1009.22 1009.76 1010.28 1010.72 1011.08 1011.36 1011.61 1011.87 1012.18 1012.58 1013.06 1013.58 1014.10 1014.56 1014.93 1015.16 1015.27 1015.27 1015.20 1015.11 1015.03 1015.01 1015.05 1015.14 1015.26 1015.37 1015.46 1015.51 1015.53 1015.51 1015.48 1015.45 1015.45 1015.47 1015.51 1015.53 1015.52 1015.46 1015.32 1015.10 1014.83 1014.50 1014.17
1008.49 1009.06 1009.64 1010.16 1010.62 1011.01 1011.37 1011.72 1012.10 1012.54 1013.02 1013.52 1014.01 1014.44 1014.77 1014.99 1015.09 1015.09 1015.03 1014.96 1014.89 1014.86 1014.87 1014.92 1014.99 1015.05 1015.08 1015.09 1015.06 1015.01 1014.96 1014.93 1014.92 1014.94 1014.98 1015.02 1015.04 1015.01 1014.92 1014.77 1014.56 1014.31 1014.04
1007.90 1008.49 1009.11 1009.71 1010.26 1010.75 1011.19 1011.63 1012.06 1012.52 1012.99 1013.46 1013.90 1014.27 1014.56 1014.74 1014.82 1014.83 1014.78 1014.72 1014.66 1014.63 1014.63 1014.65 1014.68 1014.70 1014.70 1014.66 1014.60 1014.53 1014.46 1014.41 1014.39 1014.39 1014.42 1014.46 1014.48 1014.47 1014.42 1014.32 1014.18 1014.00 1013.81
1007.53 1008.12 1008.76 1009.41 1010.02 1010.58 1011.10 1011.59 1012.06 1012.52 1012.96 1013.38 1013.75 1014.06 1014.29 1014.43 1014.49 1014.49 1014.45 1014.41 1014.37 1014.35 1014.36 1014.37 1014.38 1014.38 1014.35 1014.29 1014.21 1014.12 1014.03 1013.96 1013.91 1013.89 1013.89 1013.90 1013.91 1013.90 1013.87 1013.81 1013.73 1013.62 1013.51
1007.36 1007.94 1008.59 1009.25 1009.90 1010.51 1011.08 1011.60 1012.08 1012.52 1012.92 1013.28 1013.58 1013.81 1013.98 1014.07 1014.11 1014.10 1014.08 1014.06 1014.05 1014.05 1014.07 1014.10 1014.11 1014.10 1014.07 1014.00 1013.91 1013.81 1013.70 1013.60 1013.53 1013.47 1013.43 1013.40 1013.38 1013.36 1013.34 1013.30 1013.26 1013.22 1013.17
1007.35 1007.91 1008.54 1009.21 1009.86 1010.49 1011.07 1011.60 1012.07 1012.49 1012.85 1013.14 1013.37 1013.54 1013.64 1013.69 1013.71 1013.71 1013.70 1013.70 1013.72 1013.76 1013.80 1013.85 1013.87 1013.87 1013.84 1013.77 1013.68 1013.57 1013.45 1013.33 1013.22 1013.12 1013.04 1012.97 1012.91 1012.87 1012.83 1012.81 1012.80 1012.81 1012.82
1007.40 1007.94 1008.55 1009.19 1009.83 1010.45 1011.03 1011.55 1012.01 1012.40 1012.72 1012.96 1013.13 1013.24 1013.30 1013.32 1013.33 1013.33 1013.33 1013.36 1013.41 1013.47 1013.54 1013.60 1013.64 1013.66 1013.63 1013.57 1013.48 1013.36 1013.23 1013.09 1012.95 1012.82 1012.69 1012.58 1012.49 1012.41 1012.36 1012.34 1012.35 1012.38 1012.44
1007.42 1007.93 1008.50 1009.11 1009.73 1010.34 1010.91 1011.42 1011.87 1012.24 1012.52 1012.73 1012.87 1012.95 1012.98 1012.98 1012.98 1012.98 1013.00 1013.05 1013.11 1013.19 1013.27 1013.35 1013.40 1013.41 1013.39 1013.33 1013.24 1013.12 1012.98 1012.82 1012.66 1012.49 1012.34 1012.19 1012.06 1011.96 1011.90 1011.87 1011.89 1011.94 1012.02
1007.30 1007.79 1008.33 1008.91 1009.51 1010.10 1010.66 1011.17 1011.61 1011.98 1012.26 1012.47 1012.59 1012.66 1012.69 1012.69 1012.68 1012.68 1012.71 1012.76 1012.82 1012.90 1012.98 1013.04 1013.08 1013.09 1013.06 1013.00 1012.90 1012.78 1012.63 1012.46 1012.29 1012.11 1011.93 1011.76 1011.61 1011.49 1011.42 1011.39 1011.40 1011.46 1011.55
1007.02 1007.48 1008.00 1008.55 1009.13 1009.71 1010.27 1010.79 1011.24 1011.63 1011.94 1012.16 1012.31 1012.39 1012.43 1012.44 1012.43 1012.44 1012.45 1012.48 1012.53 1012.59 1012.63 1012.67 1012.68 1012.66 1012.62 1012.54 1012.43 1012.31 1012.16 1012.00 1011.82 1011.64 1011.46 1011.29 1011.13 1011.01 1010.93 1010.89 1010.90 1010.95 1011.04
1006.58 1007.02 1007.51 1008.04 1008.61 1009.18 1009.75 1010.29 1010.78 1011.20 1011.55 1011.82 1012.01 1012.13 1012.20 1012.22 1012.22 1012.22 1012.21 1012.21 1012.22 1012.22 1012.22 1012.21 1012.18 1012.12 1012.05 1011.96 1011.84 1011.72 1011.58 1011.43 1011.28 1011.11 1010.95 1010.79 1010.64 1010.52 1010.44 1010.40 1010.40 1010.44 1010.51
1006.04 1006.46 1006.92 1007.43 1007.98 1008.56 1009.14 1009.71 1010.24 1010.71 1011.12 1011.45 1011.69 1011.86 1011.96 1012.01 1012.02 1011.99 1011.96 1011.91 1011.86 1011.81 1011.74 1011.67 1011.59 1011.50 1011.40 1011.30 1011.19 1011.08 1010.96 1010.84 1010.71 1010.58 1010.44 1010.30 1010.18 1010.06 1009.98 1009.93 1009.92 1009.93 1009.98
1005.50 1005.88 1006.32 1006.80 1007.33 1007.90 1008.49 1009.08 1009.65 1010.17 1010.64 1011.03 1011.33 1011.55 1011.69 1011.76 1011.76 1011.73 1011.65 1011.56 1011.45 1011.33 1011.21 1011.08 1010.96 1010.84 1010.73 1010.63 1010.54 1010.45 1010.37 1010.29 1010.20 1010.10 1009.99 1009.88 1009.77 1009.67 1009.58 1009.52 1009.48 1009.47 1009.47
1005.07 1005.41 1005.80 1006.24 1006.74 1007.28 1007.86 1008.45 1009.04 1009.60 1010.11 1010.55 1010.90 1011.17 1011.34 1011.42 1011.42 1011.37 1011.26 1011.12 1010.96 1010.79 1010.62 1010.46 1010.32 1010.20 1010.10 1010.02 1009.96 1009.91 1009.87 1009.83 1009.78 1009.72 1009.64 1009.54 1009.44 1009.34 1009.24 1009.15 1009.08 1009.03 1008.98
1004.84 1005.11 1005.45 1005.83 1006.27 1006.76 1007.30 1007.87 1008.45 1009.02 1009.54 1010.01 1010.39 1010.68 1010.86 1010.95 1010.95 1010.87 1010.74 1010.57 1010.38 1010.18 1009.99 1009.83 1009.70 1009.60 1009.54 1009.50 1009.49 1009.50 1009.50 1009.50 1009.48 1009.43 1009.36 1009.27 1009.16 1009.03 1008.91 1008.79 1008.68 1008.58 1008.49
1004.87 1005.08 1005.33 1005.64 1005.99 1006.41 1006.88 1007.39 1007.92 1008.45 1008.96 1009.41 1009.79 1010.07 1010.26 1010.34 1010.32 1010.23 1010.08 1009.89 1009.69 1009.50 1009.33 1009.19 1009.10 1009.06 1009.05 1009.08 1009.13 1009.18 1009.23 1009.25 1009.25 1009.20 1009.11 1009.00 1008.85 1008.69 1008.52 1008.36 1008.21 1008.07 1007.94
1005.21 1005.34 1005.50 1005.70 1005.95 1006.25 1006.62 1007.03 1007.48 1007.94 1008.39 1008.79 1009.12 1009.38 1009.53 1009.58 1009.55 1009.44 1009.28 1009.10 1008.91 1008.74 1008.62 1008.54 1008.52 1008.55 1008.62 1008.71 1008.82 1008.92 1009.00 1009.03 1009.00 1008.93 1008.81 1008.64 1008.44 1008.22 1008.00 1007.79 1007.60 1007.43 1007.29
1005.84 1005.88 1005.94 1006.02 1006.14 1006.32 1006.55 1006.84 1007.17 1007.52 1007.87 1008.18 1008.44 1008.62 1008.72 1008.73 1008.67 1008.54 1008.38 1008.20 1008.05 1007.93 1007.86 1007.86 1007.92 1008.03 1008.18 1008.34 1008.50 1008.62 1008.70 1008.72 1008.66 1008.53 1008.34 1008.10 1007.83 1007.55 1007.28 1007.03 1006.81 1006.63 1006.48
1006.70 1006.66 1006.61 1006.58 1006.57 1006.60 1006.69 1006.83 1007.02 1007.23 1007.45 1007.64 1007.80 1007.88 1007.90 1007.85 1007.73 1007.58 1007.41 1007.25 1007.13 1007.07 1007.07 1007.14 1007.28 1007.46 1007.68 1007.89 1008.07 1008.20 1008.26 1008.24 1008.12 1007.92 1007.65 1007.34 1006.99 1006.65 1006.32 1006.04 1005.81 1005.63 1005.50
Thickness
5764 5766 5766 5764 5760 5757 5755 5751 5747 5744 5742 5739 5735 5732 5730 5729 5728 5725 5721 5717 5714 5711 5708 5707 5705 5705 5704 5703 5702 5701 5700 5700 5703 5701 5702 5707 5714 5717 5719 5720 5721 5722 5723
5758 5759 5761 5760 5757 5753 5750 5746 5744 5742 5740 5736 5733 5730 5728 5726 5725 5722 5718 5715 5711 5707 5706 5702 5701 5700 5698 5697 5697 5696 5693 5693 5697 5694 5691 5692 5698 5707 5716 5716 5717 5718 5719
5754 5755 5757 5757 5755 5751 5748 5747 5743 5740 5737 5734 5732 5728 5724 5721 5719 5716 5714 5712 5708 5705 5701 5698 5696 5694 5693 5692 5691 5690 5688 5686 5689 5691 5686 5682 5683 5690 5701 5707 5709 5711 5712
5759 5758 5757 5756 5755 5752 5750 5748 5743 5739 5735 5732 5727 5722 5718 5714 5714 5713 5711 5709 5706 5703 5699 5696 5693 5690 5688 5687 5687 5687 5683 5682 5680 5683 5685 5685 5684 5678 5681 5690 5698 5702 5704
5764 5761 5760 5758 5757 5755 5752 5748 5743 5737 5733 5729 5725 5720 5716 5713 5712 5709 5707 5704 5703 5701 5698 5695 5691 5687 5684 5683 5682 5680 5678 5676 5675 5674 5675 5676 5677 5677 5672 5673 5681 5688 5695
5769 5766 5764 5761 5758 5757 5754 5749 5741 5735 5731 5726 5723 5718 5713 5709 5706 5703 5701 5700 5699 5699 5697 5693 5689 5684 5681 5679 5676 5674 5672 5671 5669 5668 5667 5667 5667 5667 5667 5666 5670 5674 5683
5771 5767 5763 5760 5758 5755 5752 5747 5740 5732 5729 5725 5721 5716 5712 5707 5704 5701 5699 5697 5695 5694 5692 5689 5684 5680 5677 5674 5672 5670 5667 5666 5664 5662 5661 5661 5662 5663 5663 5662 5662 5665 5672
5773 5769 5766 5762 5759 5755 5751 5746 5738 5731 5728 5724 5719 5715 5710 5706 5704 5701 5697 5694 5692 5690 5688 5684 5680 5677 5674 5671 5668 5665 5663 5662 5659 5657 5656 5654 5655 5656 5656 5655 5654 5653 5658
5775 5772 5768 5764 5760 5755 5750 5744 5737 5730 5726 5722 5717 5712 5708 5704 5701 5697 5694 5692 5690 5687 5684 5680 5676 5673 5670 5666 5663 5660 5657 5655 5654 5652 5650 5649 5648 5649 5649 5649 5648 5645 5643
5778 5774 5770 5766 5761 5755 5749 5743 5736 5729 5724 5720 5715 5714 5708 5704 5700 5696 5692 5688 5685 5681 5678 5675 5672 5668 5665 5662 5658 5655 5652 5649 5647 5645 5643 5641 5640 5640 5640 5641 5641 5641 5639
5779 5776 5771 5766 5759 5753 5746 5739 5733 5727 5722 5718 5714 5710 5706 5702 5699 5695 5691 5687 5683 5679 5674 5671 5667 5664 5660 5657 5653 5649 5646 5643 5640 5638 5636 5634 5633 5631 5631 5632 5632 5632 5633
5783 5777 5771 5763 5756 5749 5744 5738 5733 5727 5723 5719 5714 5709 5704 5700 5696 5692 5689 5685 5681 5676 5672 5668 5663 5659 5656 5652 5647 5643 5640 5636 5632 5630 5628 5626 5625 5624 5622 5621 5622 5623 5625
5782 5776 5768 5760 5753 5747 5742 5738 5733 5728 5724 5720 5714 5708 5703 5699 5694 5690 5686 5682 5677 5673 5669 5664 5659 5655 5650 5646 5642 5637 5633 5629 5626 5623 5620 5618 5616 5614 5614 5613 5613 5614 5617
5778 5772 5763 5757 5751 5746 5740 5735 5731 5728 5723 5718 5712 5706 5701 5697 5692 5688 5684 5679 5675 5670 5665 5660 5656 5651 5646 5641 5636 5631 5627 5622 5618 5615 5613 5611 5609 5607 5606 5605 5605 5605 5606
5774 5768 5760 5754 5749 5743 5738 5733 5729 5725 5720 5714 5708 5704 5700 5696 5691 5686 5681 5676 5672 5667 5662 5657 5651 5646 5641 5637 5631 5625 5620 5615 5611 5608 5605 5604 5603 5602 5600 5599 5598 5597 5596
5770 5766 5760 5753 5747 5741 5736 5732 5727 5722 5717 5710 5705 5702 5697 5692 5687 5683 5678 5673 5668 5663 5658 5652 5646 5640 5636 5629 5622 5615 5611 5606 5602 5599 5598 5596 5595 5595 5594 5592 5591 5589 5588
5770 5765 5759 5753 5746 5741 5736 5730 5725 5720 5714 5708 5703 5699 5694 5689 5684 5680 5675 5669 5664 5658 5653 5647 5641 5635 5629 5622 5615 5608 5602 5598 5595 5592 5590 5589 5590 5589 5587 5585 5584 5583 5582
5770 5766 5760 5754 5748 5743 5736 5729 5724 5718 5711 5706 5701 5697 5691 5686 5681 5675 5670 5664 5659 5653 5647 5641 5636 5630 5624 5617 5610 5603 5596 5592 5589 5587 5585 5583 5582 5581 5579 5577 5577 5576 5577
5771 5766 5762 5756 5750 5742 5735 5727 5721 5715 5709 5704 5699 5695 5689 5683 5676 5670 5665 5660 5654 5648 5642 5637 5631 5625 5619 5612 5604 5596 5592 5589 5586 5584 5582 5579 5577 5575 5572 5569 5569 5569 5569
5771 5765 5761 5755 5746 5740 5734 5724 5716 5711 5706 5702 5697 5692 5686 5678 5672 5666 5661 5655 5649 5643 5638 5633 5627 5621 5615 5608 5600 5591 5587 5584 5581 5579 5577 5575 5572 5569 5565 5563 5562 5560 5561
5767 5762 5756 5749 5743 5737 5729 5719 5713 5708 5704 5700 5694 5688 5681 5674 5668 5663 5657 5651 5645 5639 5633 5628 5623 5618 5613 5606 5598 5589 5583 5579 5576 5573 5571 5569 5566 5562 5558 5555 5554 5553 5552
5761 5756 5749 5743 5738 5732 5723 5714 5708 5705 5701 5694 5688 5682 5676 5669 5665 5658 5652 5646 5640 5634 5629 5624 5620 5616 5611 5604 5596 5587 5579 5574 5570 5566 5564 5562 5557 5554 5551 5549 5548 5546 5543
5753 5749 5742 5735 5730 5725 5717 5708 5703 5699 5693 5686 5680 5674 5669 5663 5657 5650 5645 5641 5636 5630 5626 5621 5616 5612 5607 5600 5593 5584 5577 5570 5564 5562 5560 5555 5550 5548 5546 5545 5543 5540 5538
5742 5739 5733 5725 5719 5715 5709 5703 5698 5692 5684 5677 5672 5667 5662 5657 5653 5647 5642 5637 5633 5627 5622 5616 5610 5605 5600 5594 5588 5581 5573 5566 5561 5557 5554 5552 5549 5547 5545 5545 5543 5539 5538
5730 5727 5722 5716 5711 5707 5701 5696 5690 5683 5675 5670 5665 5661 5657 5653 5649 5645 5641 5636 5632 5625 5617 5612 5606 5600 5594 5588 5578 5572 5568 5563 5557 5550 5549 5549 5550 5550 5549 5547 5546 5543 5540
5715 5712 5709 5704 5701 5696 5691 5686 5681 5674 5666 5660 5656 5654 5651 5648 5645 5642 5638 5635 5629 5624 5616 5609 5602 5598 5591 5583 5575 5568 5561 5554 5547 5542 5546 5548 5548 5549 5548 5547 5545 5543 5541